TimeCDT,TemperatureF,Dew PointF,Humidity,Sea Level PressureIn,VisibilityMPH,Wind Direction,Wind SpeedMPH,Gust SpeedMPH,PrecipitationIn,Events,Conditions,WindDirDegrees,DateUTC
12:53 AM,61.0,43.0,52,29.69,10.0,West,6.9,-,N/A,,Clear,280,2013-03-16 05:53:00
1:53 AM,55.9,43.0,62,29.72,10.0,NNW,16.1,-,N/A,,Clear,340,2013-03-16 06:53:00
2:53 AM,51.1,43.0,74,29.76,10.0,North,10.4,20.7,N/A,,Clear,350,2013-03-16 07:53:00
3:53 AM,48.9,39.9,71,29.78,10.0,North,13.8,-,N/A,,Clear,360,2013-03-16 08:53:00
4:53 AM,46.0,37.9,73,29.81,9.0,North,15.0,19.6,N/A,,Clear,360,2013-03-16 09:53:00
5:53 AM,42.1,36.0,79,29.88,7.0,North,8.1,-,N/A,,Scattered Clouds,360,2013-03-16 10:53:00
6:03 AM,42.8,37.4,81,29.89,6.0,North,16.1,20.7,N/A,,Haze,350,2013-03-16 11:03:00
6:40 AM,41.0,35.6,81,29.92,5.0,North,15.0,-,N/A,,Haze,350,2013-03-16 11:40:00
6:53 AM,39.9,35.1,83,29.91,7.0,North,25.3,-,N/A,,Mostly Cloudy,10,2013-03-16 11:53:00
7:00 AM,39.2,33.8,81,29.92,8.0,North,21.9,-,N/A,,Scattered Clouds,360,2013-03-16 12:00:00
7:08 AM,39.2,33.8,81,29.93,8.0,North,20.7,-,N/A,,Mostly Cloudy,360,2013-03-16 12:08:00
7:53 AM,39.0,34.0,82,29.93,6.0,North,15.0,27.6,N/A,,Haze,10,2013-03-16 12:53:00
8:53 AM,39.0,34.0,82,29.96,7.0,NNE,19.6,25.3,N/A,,Overcast,20,2013-03-16 13:53:00
9:53 AM,39.9,33.1,77,29.99,10.0,NNE,16.1,28.8,N/A,,Overcast,20,2013-03-16 14:53:00
10:51 AM,41.0,32.0,70,30.00,10.0,NNE,16.1,-,N/A,,Overcast,20,2013-03-16 15:51:00
10:53 AM,41.0,32.0,70,30.01,10.0,North,16.1,-,N/A,,Overcast,10,2013-03-16 15:53:00
11:31 AM,42.8,30.2,61,30.01,10.0,NNE,15.0,-,N/A,,Scattered Clouds,20,2013-03-16 16:31:00
11:53 AM,43.0,30.9,62,30.02,10.0,North,15.0,-,N/A,,Clear,10,2013-03-16 16:53:00
12:17 PM,42.8,32.0,66,30.03,10.0,North,15.0,-,N/A,,Mostly Cloudy,360,2013-03-16 17:17:00
12:53 PM,45.0,30.9,58,30.02,10.0,NNE,13.8,18.4,N/A,,Scattered Clouds,20,2013-03-16 17:53:00
1:21 PM,44.6,30.2,57,30.03,10.0,NNE,16.1,19.6,N/A,,Mostly Cloudy,30,2013-03-16 18:21:00
1:29 PM,44.6,30.2,57,30.02,10.0,North,15.0,-,N/A,,Scattered Clouds,10,2013-03-16 18:29:00
1:53 PM,46.0,32.0,58,30.01,10.0,NNE,15.0,23.0,N/A,,Clear,30,2013-03-16 18:53:00
2:53 PM,44.1,30.9,60,30.01,10.0,NNE,19.6,-,N/A,,Partly Cloudy,30,2013-03-16 19:53:00
3:33 PM,44.6,30.2,57,30.00,10.0,NNE,15.0,-,N/A,,Mostly Cloudy,30,2013-03-16 20:33:00
3:53 PM,44.1,30.0,58,30.01,10.0,NE,15.0,-,N/A,,Mostly Cloudy,50,2013-03-16 20:53:00
4:53 PM,43.0,30.0,60,30.02,10.0,NE,13.8,-,N/A,,Mostly Cloudy,40,2013-03-16 21:53:00
5:37 PM,42.8,30.2,61,30.01,10.0,NE,12.7,-,N/A,,Mostly Cloudy,40,2013-03-16 22:37:00
5:53 PM,43.0,30.0,60,30.03,10.0,NE,10.4,-,N/A,,Overcast,40,2013-03-16 22:53:00
6:11 PM,42.8,30.2,61,30.01,10.0,NE,12.7,-,N/A,,Overcast,50,2013-03-16 23:11:00
6:53 PM,42.1,28.9,60,30.03,10.0,NE,11.5,-,N/A,,Overcast,40,2013-03-16 23:53:00
7:53 PM,39.9,28.0,63,30.05,10.0,NE,15.0,-,N/A,,Mostly Cloudy,50,2013-03-17 00:53:00
8:53 PM,37.9,28.0,68,30.06,10.0,NE,16.1,-,N/A,,Overcast,40,2013-03-17 01:53:00
9:53 PM,37.9,27.0,65,30.06,10.0,NNE,19.6,-,N/A,,Overcast,30,2013-03-17 02:53:00
10:53 PM,37.0,27.0,67,30.06,10.0,NE,18.4,25.3,N/A,,Overcast,40,2013-03-17 03:53:00
11:53 PM,37.0,27.0,67,30.09,10.0,NE,13.8,-,N/A,,Overcast,40,2013-03-17 04:53:00